Главная страница
METAR-TAF:

METAR-TAF

Аэропорты :

Easton, Мэриленд, США

широта: 38-48N, долгота: 076-04W, высота над уровнем моря: 22 м

Текущие метеонаблюдения

Эта сводка был подготовлена 57 минут назад, в 00:48 UTC
Ветер 8 Узел от южный-юго-западный
Температура 14°C
Влажность 63%
Давление 1019 hPa
Видимость: 16.1 км
ясное небо

METAR: KESN 200048Z 21008KT 10SM SKC 14/07 A3008

Время: 21:45 (01:45 UTC)


TAF: отсутствует

Метеонаблюдения и прогнозы для более 4000 аэропортов (сводки METAR и TAF).

Имеющиеся станции представлены на карте желтыми и красными точками.

Чтобы увидеть название станции, наведите на нее мышь.

Затем щелкните, чтобы увидеть метеонаблюдения и метеопрогнозы.

Управление картой: чтобы увеличить масштаб, щелкните зеленые кнопки с черным крестиком; чтобы уменьшить масштаб, щелкните зеленую кнопку с тире; для просмотра соседних карт щелкайте зеленые стрелки.


METAR-TAF: